Regional Weather Roundup
Issued by NWS Little Rock, AR

Home | Current Version | Previous Version | Graphics & Text | Print | Product List | Glossary On
Versions: 1 2 3 4 5 6 7 8 9 10 11 12 13 14 15 16 17 18 19 20 21 22 23 24 25 26 27 28 29 30 31 32 33 34 35 36 37 38 39 40 41 42 43 44 45 46 47 48 49 50
000
ASUS44 KLZK 261105
RWRLZK

WEATHER ROUNDUP FOR ARKANSAS
NATIONAL WEATHER SERVICE LITTLE ROCK AR
600 AM CDT THU MAY 26 2016

NOTE: "FAIR" INDICATES FEW OR NO CLOUDS BELOW 12,000 FEET WITH NO
SIGNIFICANT WEATHER AND/OR OBSTRUCTIONS TO VISIBILITY.

ARZ001-003-010-029-261200-
NORTHWEST ARKANSAS

CITY           SKY/WX    TMP DP  RH WIND       PRES   REMARKS
FAYETTEVILLE   MOCLDY    74  73  97 S12G17    29.94R
FORT SMITH     PTCLDY    73  70  90 CALM      29.92S
HARRISON       MOCLDY    71  70  96 S6        29.96R
BENTONVILLE    PTCLDY    73  68  83 S9        29.93F
ROGERS         MOCLDY    74  71  91 S10       29.94S
SILOAM SPGS    MOCLDY    73  64  73 S14       29.93F
HIGHFILL       MOCLDY    74  73  97 S16       29.91F
SPRINGDALE     MOCLDY    75  72  88 S9        29.96
$$

ARZ004-005-016-261200-
NORTH CENTRAL ARKANSAS

CITY           SKY/WX    TMP DP  RH WIND       PRES   REMARKS
BATESVILLE     CLOUDY    75  72  88 S6        29.98S
FLIPPIN        CLOUDY   N/A N/A N/A E5        29.91R
MTN HOME       PTCLDY    70  70 100 S5        29.94S FOG
$$

ARZ040-041-261200-
WEST CENTRAL ARKANSAS

CITY           SKY/WX    TMP DP  RH WIND       PRES   REMARKS
MENA           CLOUDY    79  73  83 CALM      29.98S
MOUNT IDA      CLOUDY    78  71  79 MISG      29.96S
$$

ARZ009-017-025-026-028-261200-
NORTHEAST ARKANSAS

CITY           SKY/WX    TMP DP  RH WIND       PRES   REMARKS
CORNING          N/A     68  68 100 S6        29.98F
JONESBORO      CLEAR     70  68  93 S9        29.99S
NEWPORT        CLEAR     72  72 100 S7        29.99S
WALNUT RIDGE   MOCLDY    72  66  83 S10       29.98S
BLYTHEVILLE    MOCLDY    70  65  84 S8        30.02R
$$

ARZ022-023-033-042-044-261200-
CENTRAL ARKANSAS

CITY           SKY/WX    TMP DP  RH WIND       PRES   REMARKS
LITTLE ROCK    CLOUDY    77  72  84 S12       29.99R
N LITTLE ROCK    N/A     75  72  91 SW8       29.97R
JACKSONVILLE   MOCLDY    76  74  91 SW12      29.99R
SEARCY         CLEAR     72  72 100 S3        30.00R VSB 3/4
HOT SPRINGS    MOCLDY    76  71  85 S8G18     29.99S
RUSSELLVILLE   PTCLDY    76  73  91 S7        29.94F
CLINTON        CLOUDY    73  73 100 CALM      29.96S
$$

ARZ036-261200-
EAST ARKANSAS

CITY           SKY/WX    TMP DP  RH WIND       PRES   REMARKS
WEST MEMPHIS   CLEAR     72  68  87 S9        30.02R
$$

ARZ050-053-066-070-073-261200-
SOUTHWEST ARKANSAS

CITY           SKY/WX    TMP DP  RH WIND       PRES   REMARKS
ARKADELPHIA    PTSUNNY   72  72 100 CALM      30.00S FOG
CAMDEN         CLEAR     73  70  88 S5        30.00F FOG
TEXARKANA      MOCLDY    74  72  93 S8        29.99F
EL DORADO      PTCLDY    73  72  96 S7        30.02S
DE QUEEN       MOCLDY    76  73  91 S8        29.96R
$$

ARZ056-057-069-261200-
SOUTHEAST ARKANSAS

CITY           SKY/WX    TMP DP  RH WIND       PRES   REMARKS
PINE BLUFF     CLEAR     75  72  90 SW13      30.01R
STUTTGART      CLEAR     73  66  78 S12       30.01R
MONTICELLO     CLOUDY    72  70  93 S5        30.03S FOG

$$





USA.gov is the U.S. government's official web portal to all federal, state and local government web resources and services.